Theta_e
331 329 325 326 323 320 315 305 297 294 297 291 289 291 292 295 294 294 294 294 295 297 300 301 301 303 301 299 299 299 301 298 296 293 290 298 309 312 315 319 321 322 323 323 322 324 328 336 338 338 338 339 339 340 340 341 341 341 341 342 342 342 343 343 342 343 343 343 343 343 343 343 343 343 343 342 342 341 341 340 341 342 343 344 345 346 346 346 346 346 344 343 341 340 340 341 341
329 322 320 323 321 317 311 301 293 291 288 286 291 291 292 293 295 291 292 292 292 299 298 301 300 301 302 303 302 301 301 302 303 303 301 306 308 310 314 319 321 322 322 321 322 321 322 330 336 337 337 337 338 338 339 338 339 339 339 339 339 340 340 340 341 341 341 341 341 341 341 340 340 340 340 340 339 338 338 338 338 339 340 341 343 344 344 343 343 342 342 340 338 336 336 337 337
327 321 321 318 316 314 310 301 296 287 287 285 287 291 293 293 292 292 291 292 297 299 297 299 299 299 300 301 299 300 295 304 303 303 303 307 308 310 312 316 321 322 321 320 321 320 321 326 336 336 337 337 337 337 338 337 338 338 338 337 337 337 337 337 337 338 338 338 338 338 338 338 338 338 337 337 337 336 335 335 335 336 337 338 340 340 340 339 338 338 337 335 333 332 331 331 331
319 321 320 313 311 304 300 295 288 287 287 285 287 292 292 291 293 294 296 296 297 297 297 299 299 299 299 297 298 301 301 301 303 303 302 305 307 312 311 314 321 321 320 320 320 319 319 329 335 335 336 335 336 337 337 336 336 336 336 336 335 336 336 335 335 336 335 335 336 336 336 336 336 336 335 334 333 333 333 332 332 332 333 334 335 335 335 334 333 332 332 330 329 328 328 327 327
319 319 321 312 308 303 298 295 292 288 289 287 287 290 293 292 295 296 297 297 296 296 298 298 297 300 301 300 300 299 296 302 304 305 303 306 307 311 310 316 320 320 319 319 320 319 320 332 334 334 334 335 335 336 336 335 335 335 334 334 334 334 334 334 334 333 333 333 333 333 333 333 333 333 332 332 331 330 330 329 329 328 329 330 331 331 331 330 330 330 329 329 328 327 327 326 326
316 315 317 314 307 308 300 295 292 290 294 291 294 294 293 294 297 296 297 296 298 297 297 296 296 298 299 299 302 299 302 300 303 304 304 306 307 310 311 317 319 318 318 318 318 317 319 332 333 333 334 335 334 334 334 334 334 333 333 333 333 333 333 333 332 332 332 331 331 331 331 331 331 330 330 329 328 328 328 327 327 327 327 328 329 330 329 329 329 328 328 327 327 327 326 326 326
314 310 309 303 304 301 295 290 291 290 296 296 295 296 298 295 298 296 296 298 299 298 298 299 296 297 297 298 301 304 306 306 304 304 307 307 308 309 311 315 317 316 316 317 317 318 318 331 332 332 332 333 333 333 333 332 332 332 332 332 332 331 331 331 331 330 330 330 330 329 329 329 328 328 327 326 326 327 327 327 326 326 325 326 327 327 328 327 327 327 326 326 325 325 325 325 325
315 309 304 295 294 294 292 288 291 290 292 298 295 295 294 297 296 295 296 295 296 296 298 298 297 295 294 300 297 302 305 305 306 305 306 307 309 309 310 315 316 314 315 316 317 318 325 331 331 331 331 332 332 332 332 331 331 331 330 330 330 330 330 330 329 329 328 327 327 327 327 326 326 325 325 325 325 325 326 326 326 325 325 325 325 325 325 325 326 326 325 325 325 324 323 323 323
309 312 303 297 294 291 289 290 290 292 293 293 296 297 304 299 298 296 295 296 297 295 297 298 296 294 292 298 296 300 302 304 304 307 306 307 309 308 311 315 315 313 314 315 316 317 320 329 329 330 330 331 331 331 331 331 330 329 329 328 329 328 328 328 327 327 326 325 325 325 325 325 325 326 326 324 323 323 324 325 325 324 324 324 324 324 324 324 324 324 324 324 323 323 322 323 323
307 303 296 294 290 292 287 288 291 293 293 296 297 299 298 298 297 296 296 296 296 295 296 297 296 295 295 295 297 300 300 303 304 304 306 307 309 307 309 314 314 313 313 314 314 316 317 326 329 329 330 330 330 330 330 330 329 328 328 327 327 327 327 327 326 325 324 323 323 323 323 323 324 324 325 324 324 324 323 323 323 323 323 323 323 322 322 322 322 322 322 322 321 321 321 321 320
299 301 299 296 290 289 288 287 288 293 293 294 295 295 298 299 297 295 295 295 296 295 298 298 299 295 296 296 295 300 303 302 303 303 304 306 306 304 308 312 313 313 313 312 313 314 317 320 326 328 328 328 328 329 329 328 328 328 327 326 326 325 325 325 324 324 323 323 322 322 322 322 322 323 323 323 322 322 321 322 322 321 321 320 320 321 321 320 320 321 320 319 319 319 319 318 318
299 297 296 289 287 288 287 287 290 292 294 294 295 297 296 298 296 296 295 296 296 296 297 297 298 296 295 294 296 298 301 300 302 304 303 303 302 303 308 311 312 311 311 311 311 311 313 315 319 324 327 327 327 327 327 327 327 326 325 325 325 325 325 324 324 323 323 322 321 320 319 319 320 320 321 321 321 320 319 320 320 320 319 319 319 319 319 319 319 319 318 317 317 317 317 317 317
299 296 290 290 286 287 287 289 291 293 292 291 295 298 296 297 297 296 294 295 295 295 296 299 299 298 294 295 295 298 299 300 300 302 302 300 300 302 307 309 310 310 310 309 310 309 309 310 314 316 320 325 325 325 325 325 325 325 325 324 324 323 323 323 322 322 322 321 321 319 318 317 316 316 317 318 318 318 317 317 318 318 318 318 318 318 318 318 318 317 316 315 315 315 315 315 316
300 296 295 291 288 288 291 289 287 289 288 292 294 296 297 297 297 295 294 295 294 295 297 300 299 298 296 295 294 296 299 301 300 300 299 298 300 302 305 307 307 308 308 308 308 307 307 308 309 311 313 315 314 320 322 323 323 323 323 323 322 321 321 321 320 319 319 319 318 317 316 315 314 314 313 314 316 316 315 315 316 317 317 316 317 317 316 316 316 315 314 314 313 313 312 313 314
303 299 293 290 287 285 286 290 288 288 290 292 296 298 298 299 298 293 296 295 296 298 301 300 299 299 293 297 294 298 301 301 300 300 298 298 299 301 302 304 305 305 306 306 307 306 307 306 307 306 307 307 309 310 309 317 321 322 321 321 321 320 320 319 318 317 315 315 315 314 313 312 311 312 311 311 313 313 312 312 314 316 315 315 315 315 315 315 314 313 312 312 311 310 310 310 311
302 296 292 292 286 287 287 289 290 291 291 292 295 296 297 297 298 298 297 298 299 300 299 299 301 299 297 298 297 298 302 301 300 297 297 297 298 299 299 301 302 303 304 305 305 305 305 305 305 304 304 304 305 306 308 310 318 319 319 319 319 319 318 317 317 315 313 312 310 310 309 307 307 306 308 306 308 310 311 311 311 313 312 313 313 313 312 313 312 310 310 310 309 308 307 306 307
299 296 292 286 288 287 287 290 291 290 291 292 293 296 296 295 297 297 297 298 298 298 299 297 300 299 296 296 298 301 301 302 299 296 297 296 296 296 296 296 297 298 301 302 303 303 303 304 303 302 302 302 303 304 305 306 312 316 316 317 316 316 315 314 314 312 310 309 306 307 303 297 296 297 299 300 305 302 307 310 309 310 309 310 311 311 311 311 310 309 308 308 307 305 304 303 302
300 294 287 285 287 288 289 292 291 294 295 294 296 294 295 294 294 299 298 297 296 295 297 297 299 295 298 298 300 301 300 298 296 296 295 295 295 294 295 295 296 297 298 299 301 302 301 301 302 301 300 300 301 303 304 305 309 311 305 307 306 309 311 310 305 300 305 300 308 299 296 298 295 295 298 306 300 302 302 308 308 308 307 307 307 308 308 308 308 307 306 305 304 303 301 292 294
297 290 287 287 286 292 294 294 294 294 294 293 293 292 294 295 295 297 297 293 294 295 294 296 298 296 296 297 297 298 298 296 295 295 294 294 294 295 295 295 295 295 296 297 298 300 300 300 300 300 300 299 300 301 302 304 303 302 301 302 304 308 305 302 299 301 296 297 297 296 297 295 294 296 297 299 301 307 303 307 305 305 305 304 304 305 306 306 306 305 304 303 302 300 292 290 291
298 293 288 289 291 292 294 295 298 294 296 294 294 295 293 294 296 297 295 295 292 293 294 294 296 298 296 295 295 296 297 295 295 294 294 294 295 295 295 295 295 295 297 297 298 299 299 298 299 299 299 298 299 299 300 301 299 298 299 299 301 300 299 299 297 296 296 296 297 296 294 295 295 298 307 306 303 296 300 305 304 304 302 301 299 298 301 302 302 302 302 300 297 294 290 290 291
296 295 290 292 292 294 297 295 295 294 294 295 293 294 293 292 294 296 292 293 294 295 296 298 297 299 297 294 295 295 295 294 294 294 294 294 294 295 295 296 296 296 297 297 296 297 298 298 298 298 299 297 297 298 298 298 297 296 296 297 298 296 297 296 296 296 295 295 295 295 295 295 295 294 294 293 292 293 291 291 291 292 292 293 296 289 290 292 292 290 290 293 290 291 290 290 290
296 297 297 296 294 294 297 296 294 294 293 295 293 293 296 295 295 295 293 294 296 295 297 298 299 300 297 295 295 295 295 294 294 293 293 294 294 294 295 295 294 293 294 295 296 297 297 298 298 298 299 297 296 296 297 298 298 295 295 296 296 296 296 295 296 295 295 295 295 295 296 294 293 292 292 292 292 291 291 290 290 290 290 290 293 289 289 289 288 289 289 290 289 290 290 290 290
295 296 295 296 296 295 297 298 295 293 295 294 293 295 294 294 294 292 294 296 300 296 296 298 299 300 300 298 296 294 294 294 294 293 294 293 294 294 295 295 295 293 294 295 296 296 297 297 297 298 298 297 296 295 295 297 296 295 295 296 295 295 294 295 295 294 294 294 295 295 294 292 292 291 291 291 291 291 290 289 289 289 288 289 290 288 288 288 288 288 288 289 289 289 289 289 289
298 296 294 297 295 296 298 298 294 292 292 293 293 293 294 293 294 292 293 299 301 298 294 296 298 297 298 296 295 295 295 295 294 295 295 295 295 295 295 295 296 295 293 294 295 296 297 297 297 298 298 298 297 295 295 297 296 295 294 298 296 297 295 295 294 293 294 294 294 294 294 292 291 291 291 291 290 290 290 290 289 288 288 288 290 289 288 288 288 288 288 288 289 288 288 288 289
296 296 296 298 296 296 295 292 291 291 292 292 293 293 295 293 294 292 296 300 298 297 297 296 295 294 297 297 295 296 295 295 295 295 296 296 296 296 296 295 295 294 293 294 294 295 296 297 297 297 298 298 298 296 295 296 296 294 295 296 295 299 294 294 294 294 293 293 294 294 293 291 290 291 290 290 289 289 289 289 288 287 288 287 288 288 288 288 288 288 288 288 287 287 287 288 288
295 298 297 295 295 295 294 294 294 293 294 292 293 294 294 293 293 294 299 301 299 297 296 298 295 293 295 297 297 296 296 296 296 295 295 296 296 295 295 295 295 294 294 294 294 295 296 297 296 297 298 298 298 296 295 296 296 294 295 296 295 298 294 293 293 292 292 292 292 293 293 291 291 290 290 289 289 289 288 289 288 287 286 287 287 288 288 287 287 287 287 287 287 287 287 288 287
294 293 292 293 295 293 294 293 296 294 293 291 295 296 296 293 294 295 301 298 296 295 296 295 295 296 296 296 297 297 297 297 296 297 296 295 295 295 296 296 295 295 295 294 294 295 296 296 296 297 297 299 298 296 295 296 296 295 295 296 295 296 294 293 293 292 291 291 292 292 292 292 290 290 290 289 288 288 288 288 287 287 286 286 287 287 288 287 287 287 287 286 287 287 286 286 287
295 294 293 294 293 293 294 293 294 294 295 293 294 294 293 290 292 295 300 296 293 294 293 294 294 295 296 296 296 297 297 298 298 297 296 295 296 296 296 296 296 295 294 294 295 295 295 296 296 297 297 298 297 296 296 295 295 295 295 295 294 295 294 293 292 291 292 291 291 291 291 291 291 289 289 288 288 288 288 287 287 286 286 286 287 287 287 287 287 287 287 287 287 287 286 286 287
295 294 292 294 292 294 297 294 296 294 295 291 292 292 292 290 290 298 299 300 296 294 294 292 293 294 295 295 296 296 297 298 297 297 298 298 298 298 297 298 298 296 296 296 295 295 294 295 296 296 297 297 297 296 295 295 295 295 295 294 295 294 293 292 291 291 291 291 291 291 290 291 291 289 289 289 290 288 288 287 287 287 286 287 287 287 287 286 286 286 286 287 287 285 285 285 287
294 293 291 292 291 290 297 293 294 293 293 291 293 286 288 293 295 298 300 298 295 293 295 295 295 295 295 295 295 296 297 296 296 298 299 299 299 299 298 299 299 298 296 295 294 294 295 296 297 297 296 296 296 296 295 295 295 295 295 294 294 293 293 292 292 290 291 291 290 290 290 291 290 289 289 288 288 287 287 287 286 285 286 286 286 286 285 285 285 285 285 285 289 285 284 284 284
291 290 290 287 285 286 294 294 290 292 292 292 294 287 290 295 297 297 297 296 294 295 296 296 295 295 295 295 295 296 296 297 298 299 299 299 299 299 299 299 299 298 297 294 294 295 295 296 297 296 297 296 297 295 295 294 295 294 294 293 293 293 292 292 291 290 290 290 290 289 290 290 289 289 288 288 287 287 287 286 286 285 286 286 285 286 285 284 285 285 285 284 283 283 283 285 284
288 288 285 282 286 288 293 292 291 292 291 291 293 287 290 295 297 299 294 294 292 293 295 295 295 294 294 294 295 295 297 297 298 299 299 299 299 299 299 299 299 298 297 296 295 295 295 295 296 295 296 295 296 295 295 295 294 294 294 294 293 292 292 291 290 290 290 290 289 289 289 290 289 288 288 287 287 286 286 286 285 286 286 285 285 285 285 285 284 285 285 283 282 282 284 282 283
284 288 285 286 282 285 288 292 289 295 291 291 293 289 288 291 295 297 294 294 292 293 293 294 294 294 294 294 295 296 296 296 296 297 299 299 299 299 299 299 298 299 298 296 295 294 294 294 296 295 295 295 295 295 294 294 294 293 292 292 293 292 291 290 290 290 290 289 289 288 289 289 288 288 287 287 287 286 285 285 285 286 286 285 284 284 284 285 284 285 284 285 283 282 282 282 282
285 285 284 284 285 285 285 289 290 289 292 289 291 289 292 296 296 291 290 290 290 290 292 293 294 294 295 295 294 295 296 296 297 298 298 299 300 299 300 300 299 299 298 297 295 295 294 294 295 295 295 295 295 295 294 293 293 292 292 291 292 291 290 290 289 289 289 289 288 288 288 289 288 287 287 286 286 286 285 285 285 285 285 284 283 283 283 283 284 283 282 283 283 282 282 282 282
284 282 282 285 285 286 288 286 288 289 289 290 289 289 291 294 296 296 297 295 290 291 293 293 293 294 295 295 294 294 295 296 298 300 300 298 299 299 300 299 298 298 298 296 295 295 295 294 295 295 294 294 294 294 293 292 292 291 289 290 290 289 289 288 289 289 289 289 288 288 288 288 288 287 287 286 286 286 285 285 285 285 285 283 283 283 283 284 283 282 282 281 283 282 282 282 282
287 286 286 283 284 285 286 290 291 292 290 288 288 289 291 292 293 295 296 296 295 295 293 292 293 294 295 295 294 295 295 296 299 300 299 297 298 299 300 299 298 298 298 296 295 294 294 293 294 294 294 294 294 293 292 291 290 290 289 288 288 289 288 288 288 289 288 288 288 288 288 287 287 287 286 286 286 285 284 284 285 284 284 283 283 283 282 282 282 281 281 281 281 283 283 282 281
289 286 284 285 285 286 289 291 291 289 289 288 290 291 291 292 294 295 296 296 294 294 294 294 294 295 296 297 296 296 296 297 300 300 298 297 297 298 299 298 297 296 296 295 294 293 293 293 293 292 293 293 293 292 291 291 290 289 288 289 290 289 289 288 288 287 287 288 288 288 287 287 287 287 286 286 285 286 284 284 284 284 284 283 283 283 282 282 282 281 283 284 281 280 281 280 281
288 287 284 287 285 286 290 291 291 288 289 287 289 290 291 292 294 295 295 293 294 295 295 295 295 295 296 296 297 298 299 300 299 298 296 294 296 297 298 297 296 295 295 294 293 293 293 293 293 293 293 293 293 292 292 292 292 291 291 290 290 289 288 288 287 287 288 288 288 287 287 287 286 286 286 285 285 285 284 284 284 284 283 283 283 283 282 285 284 282 282 280 281 280 280 281 282
287 286 286 285 286 288 291 291 293 291 287 288 290 288 290 291 293 295 295 294 296 297 296 297 297 296 296 296 296 297 298 298 299 299 297 295 295 296 297 296 296 297 296 295 294 293 293 292 293 293 293 292 293 293 292 292 292 291 291 289 290 288 288 288 288 288 287 287 288 287 287 286 286 286 286 286 285 284 284 284 284 283 283 284 283 282 283 282 281 281 281 280 279 280 280 282 280
285 286 284 284 287 286 285 287 288 288 290 283 282 285 289 290 291 292 295 295 296 296 296 296 297 296 296 297 298 298 297 298 298 299 299 295 294 295 295 295 296 296 295 294 293 293 293 293 292 292 292 292 292 292 293 292 292 289 288 288 288 288 286 288 287 286 286 286 287 287 286 286 286 286 285 285 285 284 284 283 283 283 283 284 283 282 281 281 281 280 280 281 279 278 278 279 282
287 287 286 286 287 288 287 287 286 287 287 287 288 287 288 290 290 291 294 296 295 296 295 295 296 297 298 298 298 299 298 299 299 299 298 293 293 294 295 296 296 295 295 294 293 293 293 292 292 292 292 292 292 293 292 291 290 288 287 287 287 286 286 285 285 284 285 286 286 286 286 286 286 286 285 285 285 284 283 283 283 283 283 283 282 282 281 281 281 280 281 281 279 278 278 277 279
288 287 289 290 290 288 288 289 287 284 285 285 285 282 284 286 290 291 293 293 292 295 294 295 296 297 297 297 297 299 299 300 300 300 300 296 294 294 294 294 294 295 295 295 294 294 293 292 292 292 292 292 292 292 292 290 290 288 287 286 285 286 285 284 285 285 285 285 286 287 286 286 286 285 285 285 285 284 283 283 283 282 282 282 282 281 281 280 280 280 280 280 279 278 278 278 276
287 284 289 291 290 288 287 286 284 280 279 285 286 280 282 283 285 288 290 291 292 292 291 294 295 296 297 297 298 299 299 299 298 299 299 294 293 293 294 294 295 295 296 295 294 293 293 292 292 292 292 291 292 291 291 291 289 289 288 288 288 287 287 286 287 287 287 286 286 286 286 285 285 285 285 284 284 284 283 283 282 282 282 282 282 281 280 280 280 280 281 279 279 282 279 277 278
285 285 286 287 287 285 286 285 285 284 283 284 285 283 280 284 288 288 291 290 290 291 292 293 294 295 296 296 297 297 298 297 297 297 297 296 294 294 294 295 295 296 295 294 293 293 292 292 292 291 291 291 291 291 291 291 290 289 288 288 288 288 288 287 287 287 286 286 286 286 285 285 285 285 285 284 284 284 283 282 282 282 282 281 282 281 281 280 280 281 281 280 280 281 279 278 277
285 287 286 286 286 285 285 285 284 281 280 282 283 282 282 283 286 291 290 287 288 290 294 295 295 295 295 296 297 297 298 297 295 295 296 295 294 294 295 294 295 294 293 293 293 293 293 292 292 291 291 291 291 291 291 290 291 289 289 288 288 288 288 287 286 287 286 286 285 285 285 285 285 284 284 284 283 284 284 283 282 281 281 281 282 281 280 280 280 280 280 279 280 279 279 278 277
287 286 286 284 283 282 285 282 285 280 278 280 282 284 281 283 288 285 287 287 288 290 293 295 297 297 296 297 297 298 298 295 293 295 295 294 295 294 295 294 293 294 294 293 292 292 292 291 291 291 290 291 290 290 291 290 290 290 289 288 288 288 287 285 285 285 285 285 285 284 285 284 284 284 283 283 283 283 283 282 282 281 281 281 282 280 280 280 280 280 280 279 279 279 279 279 278
287 286 286 282 281 280 278 278 278 280 279 281 283 284 284 279 283 284 285 286 289 291 292 294 295 294 295 296 297 298 298 297 294 293 293 294 292 293 293 293 293 292 291 291 292 292 291 291 291 290 291 291 290 290 290 290 290 290 289 289 288 287 286 285 284 284 284 284 284 284 284 284 284 284 283 283 283 283 282 282 282 281 281 282 282 280 280 280 280 279 279 279 279 278 278 278 281
288 288 280 283 283 277 276 272 277 275 278 280 283 284 284 279 280 283 287 284 286 290 291 293 293 294 295 296 296 297 298 298 294 293 293 291 291 291 291 292 291 291 290 290 291 291 291 291 291 290 290 290 290 290 290 290 290 289 289 289 288 288 287 286 285 285 285 284 284 284 284 284 283 283 283 282 282 282 282 282 281 281 281 281 281 280 280 280 279 279 279 279 278 278 278 278 278
285 283 283 280 274 274 271 271 272 272 278 278 280 284 280 282 287 283 286 288 286 289 292 293 293 294 294 295 295 296 297 294 294 294 293 292 293 292 291 291 290 290 291 291 291 291 291 291 291 290 290 290 290 290 289 290 289 289 289 289 289 288 287 287 286 286 285 285 285 284 283 283 283 282 282 282 282 282 282 281 281 280 280 280 280 280 279 279 279 279 279 278 278 278 278 278 277
285 285 282 278 274 272 270 270 269 272 278 279 280 281 282 285 282 289 292 294 294 290 292 293 293 294 294 295 296 295 295 293 293 294 293 293 293 293 293 292 291 291 291 291 290 290 291 291 290 290 290 290 290 289 289 289 289 290 290 289 289 288 288 287 287 286 286 285 285 285 284 284 283 283 283 282 283 282 282 282 281 280 280 280 280 279 279 279 279 279 278 278 277 278 277 277 277
287 285 287 285 280 272 271 274 278 279 281 276 277 277 276 275 281 286 294 294 293 291 291 293 293 293 294 294 292 291 292 292 292 293 294 294 294 294 294 293 292 291 291 291 291 290 290 290 290 290 290 290 290 290 289 289 290 290 290 290 289 289 288 288 287 287 286 285 285 285 285 284 284 284 283 283 283 282 282 281 281 280 280 279 280 279 280 279 279 278 278 277 277 277 277 277 276
284 282 282 279 282 281 282 284 280 277 275 276 274 279 277 284 288 287 286 288 289 290 292 291 290 292 292 292 293 294 294 292 292 293 294 294 294 294 294 293 292 291 291 291 291 291 290 291 290 290 291 290 290 290 289 289 290 290 289 289 289 289 288 288 287 287 286 286 286 285 285 284 284 284 283 283 282 282 281 281 280 280 279 279 279 279 279 278 278 278 277 277 277 278 276 276 276
283 285 282 286 285 286 283 282 280 277 273 278 276 279 284 286 290 291 292 291 292 291 288 288 290 292 293 293 295 295 295 292 291 293 294 295 292 293 294 293 292 291 290 291 291 291 291 291 291 290 290 290 290 290 290 290 289 289 289 289 289 288 288 287 287 286 286 286 285 285 285 284 284 283 283 283 282 281 281 280 280 279 279 279 279 279 278 278 278 278 277 277 276 277 276 276 276
284 280 284 287 287 285 282 275 275 275 276 280 278 280 283 281 282 283 286 285 286 287 290 291 292 293 292 293 294 295 295 292 291 293 294 294 294 293 293 293 293 292 292 292 292 292 292 292 291 290 290 290 290 290 290 289 289 289 289 288 288 289 288 288 287 286 286 285 284 284 284 283 283 283 283 282 282 281 280 281 280 279 279 278 278 278 278 278 277 277 277 276 276 276 276 276 275
284 283 287 287 280 279 281 277 276 277 277 279 283 285 284 285 285 287 286 285 289 291 290 290 290 290 291 292 293 293 292 290 291 292 293 294 294 294 293 293 293 292 292 292 291 291 291 291 291 291 290 290 291 291 290 290 289 289 289 289 288 288 288 288 287 286 285 284 284 284 283 283 282 282 282 281 280 280 280 280 279 278 278 278 278 278 277 277 277 276 276 276 275 275 275 275 275
286 287 285 284 282 278 278 282 278 281 279 280 281 284 282 289 285 285 286 288 289 289 285 287 290 291 292 293 294 294 293 291 292 293 294 293 293 291 292 292 291 292 291 291 291 290 290 291 291 290 290 290 289 289 289 289 289 289 289 289 288 288 288 287 287 285 284 284 284 283 283 282 282 281 281 281 280 280 280 279 279 278 278 278 277 277 277 277 276 276 276 275 275 275 274 274 274
284 285 281 283 281 282 283 283 282 283 280 280 279 279 284 288 285 288 288 287 286 286 287 287 289 292 293 293 293 292 290 290 292 294 294 294 294 293 291 290 289 288 288 289 290 290 291 290 290 290 290 290 289 290 289 289 289 289 289 288 288 288 287 287 286 285 284 284 283 283 282 282 281 280 281 280 280 280 279 279 278 278 278 277 277 277 277 276 276 275 275 275 274 274 274 274 274
287 287 285 287 284 281 280 279 286 281 283 279 280 278 286 291 286 286 285 284 285 285 286 288 288 289 290 291 291 291 292 291 291 293 294 294 293 292 288 287 287 286 287 288 290 288 288 289 290 290 290 289 289 289 289 289 289 289 288 288 287 287 286 285 285 284 284 284 283 283 282 281 280 281 280 280 280 279 279 279 278 278 277 277 277 277 276 276 276 275 274 274 274 274 274 273 273
Wind_Speed
5 5 4 1 1 1 1 4 1 3 2 4 4 0 3 1 2 1 1 1 1 1 1 1 1 1 1 3 5 4 2 7 6 9 5 1 1 3 5 9 7 7 7 4 3 3 4 6 10 11 11 11 11 11 11 11 10 9 10 10 9 9 10 9 8 9 10 9 9 10 10 9 9 11 10 11 11 12 11 11 10 9 9 9 11 11 11 13 15 15 15 14 14 13 13 11 12
3 4 3 1 0 2 0 1 3 3 4 3 7 2 5 2 1 4 5 5 3 2 1 1 5 8 9 10 6 4 1 1 1 0 1 4 1 2 5 9 7 9 6 5 4 4 3 5 11 12 12 12 11 11 11 11 10 10 9 10 9 9 9 9 9 9 9 9 9 9 9 9 9 9 10 11 12 12 12 11 11 9 9 10 10 11 11 12 12 13 13 12 12 11 11 12 11
2 5 4 4 3 3 1 3 2 1 1 4 8 6 2 1 4 4 7 4 3 3 3 2 2 3 3 2 1 2 5 1 2 1 1 0 6 7 7 7 7 8 7 4 4 4 4 5 10 13 13 12 13 13 12 11 11 11 11 10 9 9 9 9 9 9 9 9 10 10 10 10 10 10 11 12 12 12 12 11 11 11 11 10 11 12 13 12 12 12 12 11 10 10 10 11 10
1 1 1 2 1 4 2 3 3 5 2 6 5 5 3 3 6 6 4 5 3 2 1 1 2 1 4 0 2 3 0 1 4 7 4 8 8 7 7 8 8 6 5 4 4 4 3 4 11 12 12 13 13 13 13 12 12 12 11 11 10 10 10 10 10 10 9 10 11 12 12 11 11 12 12 12 11 11 12 12 11 11 11 11 11 12 12 12 12 11 11 11 11 10 10 10 10
3 2 1 3 3 1 2 1 2 3 4 4 3 4 5 5 5 5 2 3 3 3 1 2 3 0 1 1 2 2 4 2 1 5 2 3 2 8 6 7 8 7 5 4 4 4 3 6 9 12 13 13 13 13 13 13 12 12 11 11 11 11 11 11 11 10 11 11 12 12 12 12 12 12 12 12 12 12 11 12 12 12 12 12 12 12 12 12 12 12 12 11 11 11 10 10 10
1 4 2 2 0 2 5 0 1 4 8 5 1 4 4 6 7 7 2 2 2 1 2 3 2 3 1 0 2 1 3 4 2 3 4 8 7 9 7 7 8 7 5 4 4 4 4 7 9 12 12 12 12 12 12 13 13 13 12 12 12 12 12 12 12 12 12 12 12 12 12 12 12 12 12 12 12 12 12 12 12 12 12 12 12 12 12 12 12 12 12 11 11 11 10 11 10
2 4 2 4 1 3 4 2 6 5 10 7 4 6 8 5 5 4 2 1 1 1 1 2 2 3 0 1 0 2 1 2 4 3 7 7 8 9 8 8 9 7 6 5 4 4 4 9 12 13 12 12 12 13 13 13 13 13 13 13 13 13 13 13 12 12 12 13 13 12 12 12 12 12 12 12 12 12 12 12 12 12 12 12 12 12 12 12 13 12 12 12 12 12 12 12 12
1 1 1 1 1 2 1 2 5 5 5 9 4 4 6 5 5 4 6 3 3 4 1 2 2 3 2 3 2 0 2 1 3 1 5 10 10 9 8 10 10 7 6 5 5 4 6 11 12 13 13 14 14 14 14 14 14 14 14 14 13 13 13 13 13 13 13 13 12 12 12 12 12 12 12 12 12 12 12 12 12 12 12 12 13 13 13 13 13 13 13 13 13 13 13 13 13
3 1 0 4 0 2 1 4 6 3 6 3 9 7 5 7 7 6 5 2 1 1 2 3 4 3 3 2 2 1 4 2 1 4 8 10 13 10 8 11 12 9 7 6 5 5 5 9 13 15 15 15 15 15 15 15 14 14 14 14 13 13 13 13 13 13 13 13 12 12 12 12 12 12 12 12 12 12 12 12 12 12 12 12 13 13 13 13 13 14 14 14 14 13 13 13 13
1 2 1 1 2 3 3 7 0 5 4 4 5 7 5 5 6 3 6 1 4 2 4 1 1 1 2 4 1 1 2 3 3 5 7 9 10 8 7 9 10 11 8 7 6 5 5 9 13 16 16 16 16 16 15 15 15 14 14 14 14 14 14 14 14 14 14 13 13 13 13 13 13 12 12 12 12 12 12 12 12 12 12 12 13 13 13 13 13 14 14 14 13 13 13 13 13
1 4 2 1 1 1 4 7 5 7 5 5 8 6 5 6 6 3 3 2 1 3 0 2 1 3 2 2 3 1 2 4 8 11 9 9 7 7 7 6 8 9 10 7 6 5 5 5 12 13 14 15 15 15 15 15 15 15 15 14 14 15 15 15 15 15 15 14 14 14 13 13 13 12 12 12 12 12 12 12 12 12 12 12 12 13 13 13 13 14 14 14 14 14 14 14 14
1 0 2 1 2 5 5 3 5 9 8 3 4 1 3 8 3 1 3 2 3 1 5 7 3 6 1 1 2 3 1 5 8 9 9 7 7 5 7 6 7 6 7 7 5 4 4 4 6 10 12 13 13 14 15 15 15 14 14 14 14 14 14 14 15 15 15 15 15 15 14 14 13 13 12 12 12 12 12 12 12 12 12 12 13 13 13 13 13 14 14 14 14 14 14 15 15
2 1 4 2 3 1 2 1 7 4 5 5 5 0 4 6 6 7 5 2 2 4 4 10 1 4 2 3 2 2 5 9 5 7 8 8 7 6 7 7 6 6 6 5 5 4 4 3 4 4 6 11 11 11 12 13 14 14 14 14 14 14 14 14 14 14 14 14 15 15 15 14 14 13 13 12 12 12 13 13 13 13 12 13 13 13 13 13 14 14 14 15 15 15 15 15 15
1 3 3 2 1 1 1 5 3 4 5 5 2 1 4 3 4 5 5 3 5 6 4 7 2 4 2 2 2 3 8 8 5 6 5 6 5 6 8 7 7 8 6 6 6 5 4 3 2 3 4 4 4 7 9 11 13 14 14 14 14 14 14 15 14 14 14 13 13 13 13 13 13 13 13 13 13 12 13 13 13 13 13 13 13 13 14 14 14 15 15 15 15 15 15 15 15
0 1 2 1 2 1 3 2 3 2 6 2 2 0 1 3 1 2 6 5 10 3 1 2 4 3 6 7 7 8 11 11 8 5 5 4 5 5 6 7 7 7 7 7 6 6 5 4 4 3 4 4 4 4 4 7 11 12 13 13 13 14 14 14 14 14 14 13 12 12 11 11 11 12 12 13 13 12 12 12 13 13 13 14 14 14 14 15 15 15 16 16 16 16 16 16 16
2 4 2 1 3 1 5 3 0 1 6 2 3 1 0 4 0 1 4 3 1 1 2 5 1 4 1 7 1 6 9 12 9 7 7 6 4 4 5 5 5 5 6 7 7 6 6 6 4 4 4 4 4 5 5 5 9 11 13 13 13 13 14 13 13 13 12 11 11 11 9 7 7 6 10 8 11 11 11 8 12 14 14 13 13 13 13 13 14 14 15 15 16 16 17 16 17
2 3 1 1 6 3 4 3 1 3 4 3 5 1 4 2 1 2 0 0 1 1 2 2 5 1 3 3 3 3 11 11 10 9 8 6 6 5 4 4 5 4 5 7 7 7 6 7 6 5 4 4 5 5 5 5 7 11 10 12 13 13 13 13 13 11 10 10 9 8 7 5 4 4 5 5 7 5 8 8 11 12 13 12 12 12 12 12 12 13 14 14 15 15 14 14 14
2 2 2 3 4 1 5 4 4 1 1 3 1 4 3 4 2 1 1 1 0 1 2 3 1 3 1 3 1 7 14 16 12 14 10 9 6 7 7 7 7 10 9 8 7 8 8 7 8 7 6 6 5 6 4 4 5 7 5 5 6 8 9 10 8 6 7 5 7 6 5 4 4 4 4 5 4 4 4 8 9 11 12 12 11 11 11 11 12 13 13 14 14 14 13 7 7
3 1 2 8 4 7 4 3 3 0 5 3 3 2 5 7 2 1 1 3 2 5 4 1 5 2 4 4 5 12 13 13 14 14 15 15 13 15 13 9 9 6 8 8 9 11 10 8 7 8 8 7 6 5 5 5 5 5 5 5 5 6 6 6 6 6 5 5 5 5 5 5 4 4 3 3 3 4 4 8 10 11 11 11 11 11 11 11 11 12 13 13 13 11 7 6 6
4 4 5 8 7 5 5 4 7 4 3 4 3 2 5 3 2 0 3 7 1 8 6 2 6 10 5 3 4 9 12 14 14 15 16 16 15 15 12 12 12 12 12 12 11 8 9 10 10 9 9 9 8 7 6 6 5 5 6 5 6 5 5 5 5 5 5 6 6 5 6 4 4 4 6 8 6 4 6 7 9 9 10 10 10 7 8 10 10 10 11 10 6 4 5 5 5
2 2 5 5 3 3 7 4 5 6 2 1 2 0 1 4 5 3 3 2 9 11 8 10 12 14 8 7 8 9 11 13 13 13 14 14 14 11 13 16 17 16 11 7 5 10 12 11 10 10 9 9 8 7 7 7 6 6 6 6 6 5 5 5 4 4 5 6 6 6 5 4 4 6 5 5 5 5 4 4 4 4 3 4 5 4 4 4 4 4 3 4 5 5 6 6 5
4 9 6 7 0 2 10 7 8 3 3 2 2 3 7 0 0 4 5 9 15 7 9 11 11 10 9 11 12 10 12 14 15 15 17 18 19 18 13 9 6 4 5 9 13 11 12 12 11 10 10 10 10 9 9 8 8 7 7 6 6 5 6 5 5 5 6 6 6 6 6 6 6 6 5 5 5 6 5 5 4 3 3 3 3 4 4 3 3 3 3 4 4 4 4 4 4
5 4 6 6 6 6 4 4 2 1 2 3 4 4 1 1 5 4 7 15 17 3 5 10 12 11 14 13 13 12 13 15 17 18 18 17 16 15 15 13 12 12 11 14 11 10 11 11 11 10 11 10 10 8 7 8 8 7 7 7 7 6 6 6 6 6 7 6 7 7 8 7 7 6 6 6 6 6 6 6 5 4 4 3 2 4 4 3 3 3 3 3 3 4 5 5 5
5 9 1 6 5 10 10 8 7 6 6 6 4 1 3 3 9 1 5 18 17 7 3 7 10 6 8 11 16 19 19 19 20 21 21 22 23 22 20 18 15 9 7 10 10 11 12 14 12 12 12 11 10 9 9 8 7 7 8 7 7 7 7 7 7 6 7 7 7 7 7 7 8 7 6 6 6 5 6 5 5 4 3 4 3 3 5 3 4 3 3 4 5 5 6 5 5
5 8 4 6 4 7 6 6 5 5 7 5 2 4 10 6 6 5 19 21 8 7 6 6 1 5 9 13 16 15 16 16 17 18 13 13 14 14 9 7 7 9 12 12 11 11 13 13 13 14 12 13 10 10 9 8 7 7 7 7 8 7 7 7 7 7 7 6 7 7 7 8 7 7 7 6 5 6 5 5 5 4 3 3 3 3 3 4 4 3 5 5 5 6 6 6 5
6 10 2 5 6 6 6 8 8 7 5 3 2 10 9 6 4 11 26 25 6 9 8 9 6 5 10 13 16 16 16 18 19 14 19 16 10 10 13 12 11 13 16 13 12 13 11 13 15 16 15 14 12 10 9 9 9 9 9 9 8 7 7 7 6 7 7 7 7 7 8 8 8 8 8 6 7 6 5 5 5 4 4 3 3 5 2 4 4 4 4 4 5 5 5 5 4
3 3 4 6 8 7 5 5 8 2 4 3 5 13 13 1 4 14 17 4 3 5 9 6 8 11 11 9 11 14 16 19 20 19 10 8 11 13 15 12 13 17 11 13 13 12 12 13 14 14 13 12 10 11 10 10 10 10 10 9 8 8 8 7 7 7 6 6 7 8 7 7 7 7 7 7 6 6 6 6 5 4 4 3 3 4 2 3 3 5 4 5 6 5 5 5 5
1 2 6 8 6 7 10 6 13 1 7 6 9 11 8 2 2 16 24 1 4 4 5 6 6 10 10 11 12 12 14 17 14 10 17 15 15 16 15 16 18 14 14 16 14 11 11 16 15 14 14 12 12 12 10 11 11 11 10 9 9 8 8 7 7 7 7 6 6 7 7 7 7 6 7 7 7 7 6 6 5 5 5 3 3 4 3 3 4 3 4 4 4 5 5 5 5
1 1 8 11 6 11 15 7 8 4 7 3 7 2 10 3 9 23 20 12 4 5 7 6 8 9 10 9 11 9 15 14 9 12 18 19 17 15 19 19 17 16 13 14 12 12 15 15 15 15 13 13 14 14 13 11 10 10 10 10 9 8 9 8 8 8 7 6 6 7 7 7 6 7 7 7 7 7 7 7 6 5 4 4 3 3 3 3 3 4 4 3 5 5 5 5 4
1 1 1 11 8 9 20 3 3 3 4 7 6 6 8 12 18 20 17 9 3 5 11 11 10 10 9 8 10 12 11 8 11 17 17 16 15 15 19 17 16 15 12 9 10 14 13 9 10 10 13 15 15 13 11 10 11 10 9 9 8 9 9 9 8 7 7 7 7 7 7 7 6 6 7 6 6 7 6 6 6 5 4 4 3 4 4 3 4 4 3 5 4 5 5 4 5
4 3 1 6 7 10 6 1 2 2 3 8 5 6 12 13 16 13 10 6 6 9 13 13 10 9 9 9 9 11 13 13 18 19 17 16 15 13 17 12 13 13 9 9 16 19 15 14 12 11 14 14 14 13 13 12 10 10 10 9 8 9 9 9 8 7 7 7 7 7 7 7 7 7 6 7 7 7 7 6 6 6 5 4 5 3 5 3 4 4 3 5 3 4 4 3 3
1 2 7 3 7 10 16 3 5 6 1 5 6 7 13 19 17 15 4 2 5 8 13 13 11 8 9 9 10 11 13 11 15 14 15 16 14 14 14 15 14 13 16 17 15 11 14 14 14 13 14 15 15 15 13 12 11 10 9 8 8 8 8 8 8 8 7 7 7 7 7 7 7 7 7 7 8 7 7 7 6 6 5 5 5 4 4 5 4 5 3 4 4 4 4 4 3
2 7 7 10 4 7 10 10 4 13 4 1 10 10 5 12 14 16 7 6 7 9 12 13 12 12 10 10 11 11 11 10 10 14 17 15 14 14 13 14 15 19 18 15 14 14 15 15 15 15 17 18 16 14 12 9 9 9 9 9 9 9 9 8 7 7 7 7 7 7 7 7 7 7 7 7 7 7 7 7 6 6 5 6 5 4 4 3 4 5 3 3 4 3 3 3 4
8 1 8 6 7 3 5 10 6 5 8 5 8 8 13 17 11 6 4 4 3 6 12 12 11 11 12 11 10 10 11 12 14 16 19 16 14 16 15 15 16 16 15 16 16 17 19 17 16 16 15 15 13 13 12 10 9 8 7 7 7 9 8 7 7 7 7 7 7 7 8 8 8 8 7 6 6 6 6 7 6 6 5 5 5 4 4 3 4 4 4 3 4 3 3 3 4
8 4 5 8 6 7 13 4 3 3 3 8 6 13 17 17 16 11 12 9 5 7 11 11 10 10 12 10 10 11 11 13 18 18 17 11 13 13 14 13 13 13 13 16 15 15 12 13 12 13 13 14 13 11 10 8 7 6 4 6 6 7 6 6 7 7 7 7 7 7 8 8 8 7 7 7 7 7 7 6 6 5 6 6 5 5 4 4 3 3 4 3 3 3 2 1 2
11 10 11 5 6 7 7 15 9 5 6 8 10 14 16 17 20 18 16 14 14 16 10 9 11 13 14 12 10 11 12 16 18 18 9 7 11 12 13 12 12 12 12 13 14 13 14 12 11 11 13 13 11 10 9 8 8 9 9 5 5 7 7 7 7 8 7 7 7 8 8 8 7 8 7 7 7 7 7 7 7 6 6 6 6 6 5 4 4 4 3 3 3 2 2 2 3
8 4 4 10 10 11 9 17 8 2 3 10 15 18 18 18 18 18 16 14 13 15 15 13 13 15 16 15 14 15 15 18 19 12 7 8 10 13 12 11 11 10 11 13 14 15 16 17 16 17 14 14 13 13 12 12 12 9 7 11 13 11 10 8 7 7 8 8 8 9 8 8 8 8 7 7 8 7 6 6 7 5 6 6 6 6 5 5 4 4 3 2 3 3 2 3 4
7 8 7 14 7 15 16 13 8 3 6 6 10 17 19 18 18 18 12 9 18 17 16 17 19 17 14 16 18 19 19 13 13 12 8 6 9 10 10 10 10 12 13 14 17 19 17 16 18 16 13 15 15 15 15 14 14 15 15 15 12 10 10 11 11 9 10 8 9 8 8 7 8 8 8 7 7 8 8 7 7 8 7 6 5 4 5 4 4 4 4 3 1 2 1 1 4
7 9 10 10 11 14 15 10 14 9 4 14 12 18 18 17 17 17 16 14 17 15 16 19 18 16 14 15 17 19 16 17 16 15 9 8 8 8 10 10 13 18 17 19 19 16 16 16 15 14 15 15 15 15 14 14 12 9 9 7 10 7 5 6 6 6 6 8 8 8 8 7 8 7 8 8 8 8 8 8 8 7 7 7 6 6 6 5 5 5 4 6 4 2 2 2 3
6 8 6 13 10 3 12 4 7 1 8 4 4 13 13 9 11 16 17 17 17 15 16 19 16 15 17 18 17 16 17 18 19 20 18 8 8 9 9 10 14 12 11 11 12 16 14 14 14 15 15 14 14 14 14 11 9 6 4 5 5 6 5 5 4 5 5 6 8 8 8 9 8 8 8 8 7 7 8 8 7 7 7 7 7 8 7 6 5 4 4 4 5 4 2 1 2
8 13 9 11 12 15 13 6 4 5 5 4 11 16 17 13 18 15 16 19 16 16 15 16 17 15 17 16 14 16 20 20 18 17 14 6 8 11 14 14 10 12 13 15 15 16 14 17 16 16 15 16 14 14 13 10 9 8 6 6 5 5 4 5 5 6 8 8 7 9 11 9 9 9 9 9 8 9 7 7 8 8 7 7 6 7 7 7 6 5 5 5 4 6 4 2 0
10 7 13 21 17 12 9 12 9 6 9 3 4 10 14 9 19 19 12 10 10 14 14 17 20 18 16 17 20 20 18 19 18 19 17 8 10 8 7 8 11 13 14 15 15 16 14 14 14 15 13 13 13 14 14 12 13 13 11 10 10 9 9 10 15 17 13 13 14 8 7 9 10 9 9 9 9 8 9 8 8 8 8 7 7 7 6 6 5 5 6 6 5 4 5 5 2
10 7 14 18 13 11 10 12 4 8 6 4 1 3 21 5 6 8 9 10 13 8 8 15 16 16 16 17 18 18 19 17 13 15 14 7 9 8 10 12 15 15 15 11 11 13 13 14 15 16 15 13 12 13 14 12 12 12 16 17 16 16 16 13 10 7 10 8 7 10 9 8 9 10 9 9 9 8 8 8 8 8 7 7 6 6 7 7 7 6 5 5 5 5 5 4 6
9 2 7 7 7 7 8 6 6 10 1 4 0 3 8 24 11 9 13 13 10 12 14 15 16 16 16 16 16 17 18 14 11 12 13 10 8 12 15 16 12 16 11 10 11 11 14 15 15 15 12 12 12 13 15 15 15 15 15 14 13 14 16 14 11 10 8 8 9 10 9 9 9 9 10 9 9 8 8 8 8 7 7 7 7 7 7 6 6 4 5 5 5 6 6 6 5
5 0 6 5 6 5 2 4 5 3 4 10 7 3 5 14 6 11 13 7 8 13 17 17 17 17 15 15 17 18 17 13 8 11 12 10 11 13 11 11 13 8 9 13 14 13 12 12 13 13 13 13 12 15 16 16 15 15 15 13 13 13 11 7 7 7 9 9 11 8 9 9 9 9 9 10 9 9 8 8 8 7 7 7 6 6 6 7 8 8 7 6 6 5 5 4 5
4 5 6 5 4 4 2 1 0 3 3 13 7 6 6 22 13 4 0 5 9 13 18 19 18 13 12 15 17 17 13 8 8 12 10 8 9 9 9 7 7 11 10 9 8 10 11 11 13 14 14 13 13 15 16 17 16 13 14 15 17 13 9 6 8 9 9 9 12 11 10 10 10 9 9 9 9 9 9 8 8 8 8 7 7 7 7 7 7 7 7 7 7 6 4 5 6
4 3 3 3 6 3 3 6 3 4 9 10 13 11 8 15 5 9 9 9 13 13 7 9 9 9 12 13 13 14 14 12 8 7 7 7 5 6 7 10 10 7 7 9 10 11 11 13 14 16 16 13 14 16 16 18 16 15 16 17 17 15 13 10 10 11 10 10 13 12 12 11 9 10 9 9 10 10 9 8 8 8 7 7 7 8 8 8 8 7 7 7 7 8 6 6 4
4 2 3 4 5 6 2 4 3 2 14 4 13 14 13 13 3 4 4 4 4 6 9 13 12 14 14 13 12 14 16 14 6 5 6 4 4 5 6 8 8 8 7 10 10 11 13 13 14 17 15 16 15 16 17 18 17 17 15 16 17 16 14 13 15 15 14 15 14 13 10 8 9 9 9 9 10 10 9 9 8 8 8 8 9 7 7 7 7 7 7 7 7 6 5 6 6
4 4 3 1 6 6 3 2 1 6 14 2 5 8 2 23 11 2 8 9 5 8 9 11 12 12 12 12 13 13 15 6 4 6 4 5 8 10 10 8 7 11 13 13 13 13 12 13 15 17 18 17 17 16 18 18 17 17 18 18 16 14 15 15 15 14 13 13 12 12 12 13 10 10 11 12 12 13 11 10 10 10 9 9 8 8 7 7 7 7 7 7 7 7 7 7 7
7 8 6 5 5 4 5 5 4 6 7 4 5 5 13 9 3 10 17 17 14 10 11 12 11 12 12 13 12 10 12 8 5 5 5 8 9 10 11 11 12 11 11 12 12 12 12 12 14 17 18 16 14 14 17 17 20 20 17 16 15 13 14 15 14 14 13 12 12 14 14 14 14 16 14 15 14 13 11 11 10 9 8 8 9 9 8 8 8 8 7 8 8 7 6 7 6
13 3 13 13 10 6 4 5 11 10 10 2 2 5 8 2 6 7 17 11 6 5 9 10 12 11 12 9 8 10 11 11 3 5 8 10 11 11 12 13 12 11 12 12 11 12 11 13 14 17 14 16 18 19 17 19 19 18 16 15 14 13 14 13 13 12 12 13 12 13 13 11 12 13 13 12 11 13 13 11 11 10 10 10 9 9 8 8 7 7 6 7 6 6 6 6 6
4 3 3 1 10 6 9 10 8 5 4 4 3 8 3 8 1 3 4 5 8 7 10 7 8 10 10 11 13 14 14 9 4 5 8 9 9 8 8 9 10 10 11 11 12 12 14 16 16 18 20 19 19 17 17 20 18 13 13 15 17 15 12 11 10 11 12 13 13 13 13 13 12 10 9 9 12 12 13 12 11 11 10 10 10 10 9 8 8 8 7 7 7 5 7 7 6
3 7 8 11 2 7 7 4 2 1 1 16 3 8 11 7 16 13 17 13 15 9 4 5 7 11 13 15 16 14 13 10 4 7 8 8 5 6 9 9 9 9 10 14 17 17 19 17 16 17 16 13 16 19 20 16 14 13 16 17 15 14 16 16 16 15 13 11 11 12 12 12 10 10 10 10 11 12 11 12 12 11 11 11 10 10 10 9 8 8 8 8 7 5 6 6 5
8 3 7 2 2 3 3 5 2 2 10 12 2 12 13 3 17 3 1 4 6 5 10 9 15 15 13 13 13 14 13 9 4 6 7 8 9 8 7 7 9 13 15 15 17 16 15 15 15 16 14 15 17 18 17 16 17 17 16 17 17 18 17 17 14 13 12 11 11 11 10 10 13 11 10 10 11 12 11 12 12 11 11 10 11 10 9 9 9 7 7 7 6 6 6 5 5
6 7 2 7 4 5 3 4 5 7 10 8 12 18 15 13 18 4 6 6 11 13 12 10 10 9 10 12 14 13 11 8 5 6 7 8 9 11 12 14 12 11 11 11 9 8 8 10 13 15 18 19 17 12 10 10 12 12 13 17 19 17 15 14 13 11 10 12 13 13 13 12 9 10 11 11 11 11 12 12 11 11 10 11 10 10 9 9 9 8 7 7 6 6 6 5 4
2 2 1 2 1 3 6 8 3 4 14 9 16 15 16 11 5 5 6 10 11 11 5 6 10 11 9 10 14 14 11 8 7 6 7 7 7 6 8 10 12 14 12 9 8 7 11 14 11 11 11 9 9 13 15 16 16 15 14 13 14 15 16 15 14 13 13 14 14 13 12 11 14 11 11 13 13 14 13 13 11 12 11 10 11 10 10 10 9 8 8 8 7 7 7 7 5
3 1 3 2 2 3 3 3 3 7 10 10 12 14 13 10 3 5 9 6 8 7 7 6 9 11 12 10 8 8 6 6 8 9 9 9 9 9 9 7 6 4 5 6 9 13 13 8 10 13 15 15 15 16 14 16 14 16 16 16 17 16 16 14 13 13 14 13 12 12 12 12 9 13 13 13 14 14 13 13 13 12 13 12 12 11 10 10 9 9 8 8 7 7 7 5 6
7 11 12 14 10 4 7 12 2 3 8 11 10 16 8 13 2 1 3 4 3 4 3 6 7 7 7 9 10 9 9 8 8 10 10 9 7 6 3 3 3 5 6 9 9 6 6 12 15 14 13 13 15 15 16 18 17 17 17 17 15 11 10 10 12 13 14 14 13 14 13 11 14 13 13 14 14 13 12 13 13 13 12 12 12 12 11 10 10 9 8 6 8 8 7 6 6
Wind_Direction
331 323 309 301 94 81 58 3 94 308 46 257 306 209 255 233 211 104 206 323 177 262 231 340 43 88 188 210 172 171 183 132 202 130 209 227 262 212 166 145 147 143 145 160 154 137 158 159 156 155 152 151 146 143 142 138 135 138 131 124 128 128 121 119 115 107 101 103 104 102 99 98 95 91 88 85 84 77 72 65 61 62 58 53 54 55 53 50 55 62 67 58 48 42 38 44 39
322 325 329 255 184 76 257 123 97 348 35 356 252 126 249 276 101 208 190 196 205 183 215 105 64 68 60 88 109 114 55 270 175 162 300 254 310 264 185 151 154 148 152 159 151 146 163 156 153 153 153 150 141 141 143 140 133 135 135 131 135 131 122 124 118 109 103 102 104 105 104 101 96 92 91 88 82 78 72 68 62 63 62 58 56 56 56 53 48 50 54 55 50 45 42 38 36
346 350 7 29 29 73 76 42 290 41 50 284 276 212 311 281 212 228 218 214 219 155 121 132 110 57 65 50 49 153 238 107 76 116 138 196 144 222 191 158 159 151 149 159 149 153 159 163 151 154 149 147 146 141 138 134 137 121 121 118 118 126 126 122 119 116 112 112 108 105 103 101 98 96 90 85 81 79 77 72 67 65 62 62 62 61 60 61 58 57 60 64 58 50 45 42 40
25 23 91 56 258 27 65 26 95 126 172 219 303 275 229 200 238 216 241 239 211 110 190 188 135 238 113 331 208 70 59 265 198 156 139 211 208 166 171 155 155 143 136 151 153 151 164 188 150 151 148 148 144 139 134 133 132 123 121 121 125 121 118 118 121 118 120 109 98 96 95 94 91 88 86 83 81 79 76 72 68 62 62 62 63 62 61 60 59 59 59 59 56 50 45 44 42
16 315 95 93 109 353 110 191 153 116 227 197 199 271 258 222 222 196 242 249 264 223 146 186 86 313 187 136 158 171 236 215 294 189 174 204 207 163 145 148 144 137 149 157 148 151 174 169 155 151 151 150 142 136 133 131 125 123 125 127 126 123 121 122 122 119 109 101 99 96 95 92 90 88 85 83 80 77 74 73 70 65 60 60 63 63 61 60 58 57 54 52 51 47 44 42 40
44 43 19 92 131 176 54 19 290 204 224 151 247 252 240 229 191 196 216 272 253 245 201 155 175 190 206 230 196 211 179 128 185 195 159 199 175 158 143 144 139 141 156 156 148 151 175 165 151 157 152 146 139 134 130 129 128 127 130 131 129 126 123 120 113 108 105 101 100 98 94 92 89 87 84 81 80 77 75 72 70 68 65 60 60 62 62 60 58 58 55 51 49 45 43 41 41
1 31 356 21 4 55 180 179 232 214 263 167 236 251 258 230 217 145 188 105 277 2 185 199 108 91 50 262 353 229 231 229 120 230 162 164 163 155 145 143 138 148 156 160 153 154 178 165 163 161 155 147 143 139 137 136 135 134 133 132 129 126 122 119 115 111 107 104 100 98 96 94 90 87 84 82 80 78 76 74 71 69 67 64 61 61 59 59 56 55 53 51 47 44 41 41 41
84 111 312 107 232 42 227 223 253 156 273 176 219 223 249 211 170 191 187 141 222 165 210 270 220 117 232 101 187 257 336 203 242 264 134 145 157 160 145 145 143 156 159 162 159 159 179 172 169 162 157 153 148 146 144 142 140 138 136 133 130 127 124 120 117 113 109 106 105 103 101 98 94 91 89 86 83 80 79 77 75 72 70 67 64 61 59 56 53 49 48 47 46 45 44 44 41
352 82 21 79 225 31 2 243 253 226 276 269 268 231 256 191 175 161 181 227 5 265 190 204 221 132 252 158 220 293 286 306 328 152 137 153 162 160 149 153 150 158 160 162 163 167 176 181 168 165 161 156 153 151 148 145 142 140 137 134 131 128 126 123 121 118 114 112 108 106 104 100 98 93 91 89 86 82 80 77 75 73 70 68 65 62 59 56 54 50 48 46 45 46 45 43 40
9 89 300 154 131 250 335 287 193 240 227 232 241 260 198 163 186 195 171 256 212 129 232 221 199 182 142 189 296 269 251 141 132 104 149 164 160 148 150 158 153 151 158 162 165 170 175 176 170 168 164 160 156 153 150 147 144 143 142 140 138 136 133 131 128 125 122 118 116 113 109 106 102 99 94 92 89 85 82 80 79 76 73 70 68 66 63 61 57 56 52 48 48 47 46 43 40
351 7 144 77 12 267 239 274 257 300 266 312 303 243 225 145 156 201 195 209 188 166 134 162 268 214 139 250 201 287 288 151 146 168 170 167 158 153 150 153 154 155 156 161 164 170 178 174 173 168 165 161 158 154 151 151 150 149 147 146 144 142 141 138 136 133 130 127 122 118 115 112 108 104 100 95 93 90 88 88 86 81 78 76 73 70 67 63 61 59 56 52 50 48 46 43 41
335 22 3 132 200 179 234 216 273 274 292 312 265 263 171 154 133 166 226 184 203 244 174 163 224 144 206 328 274 319 112 185 183 164 165 158 160 154 143 147 150 153 152 155 153 169 177 181 173 171 164 161 159 156 155 154 153 151 148 147 145 143 141 140 138 136 133 130 127 121 119 116 113 109 106 102 97 93 91 88 87 84 80 77 74 72 68 64 62 60 56 53 49 46 43 41 39
116 109 77 99 237 151 235 251 259 283 305 282 228 295 129 131 185 208 207 188 158 137 269 215 79 128 234 211 277 306 190 212 198 167 162 158 161 141 136 145 153 147 151 150 151 169 177 178 175 163 162 158 156 154 155 154 152 151 150 148 147 145 143 141 139 137 134 131 127 123 118 114 112 110 107 104 98 92 89 85 83 82 77 72 69 70 66 63 62 61 57 53 49 45 41 37 36
110 179 119 248 90 212 196 254 288 305 290 251 254 258 169 157 233 188 130 187 205 181 239 186 143 152 228 25 289 236 222 198 192 170 148 145 137 139 145 150 153 154 158 157 163 168 174 169 145 135 143 141 143 148 151 151 153 153 151 149 148 147 147 143 140 136 132 126 121 119 117 114 110 106 103 101 95 87 82 79 77 76 72 67 64 63 61 59 58 56 52 50 48 44 42 38 36
319 175 86 116 293 40 247 175 222 170 265 231 273 138 236 251 93 121 166 194 245 206 328 114 173 106 246 158 272 224 199 185 168 150 126 108 123 131 142 151 155 158 164 168 166 171 180 165 151 122 130 136 134 138 144 153 154 152 150 149 149 150 147 143 139 132 126 123 120 116 111 105 100 96 93 93 92 85 78 70 72 71 67 63 60 58 57 54 53 49 47 45 42 40 37 33 29
155 82 86 227 265 166 270 205 280 138 266 199 270 56 326 284 278 136 245 179 267 328 122 206 234 207 204 167 228 237 158 153 152 131 120 115 109 114 134 148 160 171 174 177 178 187 177 171 165 158 155 161 154 153 158 154 151 150 152 153 153 150 147 144 139 133 123 116 115 114 107 98 92 86 83 74 76 74 68 71 72 72 68 66 63 63 61 59 57 53 50 47 45 42 36 29 23
57 81 275 42 284 162 259 182 160 293 253 276 290 337 191 266 272 236 118 76 159 229 218 221 190 50 183 209 293 112 130 130 129 129 124 131 137 144 147 161 169 183 192 195 187 188 186 176 174 167 176 175 171 161 162 154 155 152 155 156 153 150 147 145 139 130 123 119 114 113 110 106 97 86 78 76 65 60 52 57 78 79 75 72 71 70 68 66 65 61 57 53 51 46 37 28 21
63 186 130 263 203 169 220 205 191 202 241 281 273 223 180 281 304 261 41 326 276 295 233 284 319 34 313 299 63 126 137 142 149 148 161 160 162 169 185 194 180 196 192 195 202 189 184 189 181 176 174 186 179 170 165 164 161 151 152 152 150 150 146 139 133 138 136 134 124 111 111 107 98 90 79 72 63 56 42 71 82 89 84 76 75 75 73 69 66 63 59 55 51 47 42 34 20
150 129 119 234 191 237 162 208 231 330 277 237 242 282 183 234 154 286 207 275 255 262 259 261 258 290 28 47 111 133 144 149 161 169 168 172 182 185 190 187 199 185 201 201 203 195 190 183 181 180 182 182 181 174 169 171 159 149 154 154 157 149 148 144 148 142 138 135 132 125 113 106 107 100 99 99 89 89 88 90 92 93 87 79 73 74 74 70 65 63 59 55 50 48 45 38 26
237 136 240 244 213 246 232 243 277 213 242 276 279 288 163 250 173 55 208 249 296 227 231 264 233 242 195 139 148 150 156 163 172 174 182 188 190 189 186 192 200 206 203 198 193 188 186 187 188 184 181 181 177 176 171 170 164 157 162 165 159 155 153 154 149 143 138 139 141 134 123 123 114 113 108 96 84 76 76 79 81 81 89 88 78 61 60 64 61 54 57 56 49 48 53 45 32
274 125 208 235 219 219 267 236 231 250 172 239 215 323 293 270 219 157 221 312 253 242 220 200 217 228 192 177 171 167 168 172 183 188 190 195 201 203 200 196 194 199 198 176 177 195 193 189 182 185 180 181 180 177 171 175 169 160 170 171 162 159 157 156 152 141 144 145 143 134 135 124 114 108 109 109 112 108 97 91 90 89 92 97 101 89 82 70 64 52 42 43 43 43 41 34 32
116 212 223 221 306 287 260 253 254 203 210 264 253 303 256 326 64 226 183 229 260 210 231 216 228 224 164 178 189 177 178 181 188 191 197 196 196 202 206 218 232 211 170 185 200 192 195 190 184 181 179 184 185 178 177 172 163 170 174 176 163 167 164 166 159 152 154 154 145 143 135 126 125 124 126 127 127 126 120 124 128 129 111 117 122 108 93 89 74 75 64 55 47 53 56 46 37
253 264 253 237 232 245 268 271 244 198 272 255 288 247 354 292 266 236 203 222 251 174 195 204 215 216 190 173 161 182 186 191 193 198 198 202 207 210 207 204 196 197 195 205 193 195 190 190 185 176 184 183 187 183 171 169 176 175 171 172 164 175 172 166 171 165 166 160 152 152 145 145 141 142 141 143 144 143 142 146 146 144 135 124 128 109 93 87 87 74 69 65 67 54 44 37 28
211 255 173 279 207 232 256 268 287 282 252 249 223 17 262 272 295 245 233 241 243 244 213 203 213 208 137 151 179 184 191 193 200 203 198 200 199 203 202 198 203 201 200 204 195 193 188 192 185 179 184 183 184 181 174 178 176 172 177 173 175 174 169 177 178 177 168 164 158 159 152 151 151 150 156 153 158 147 153 149 143 135 129 122 118 105 96 77 67 60 61 50 46 45 44 34 29
207 263 236 265 255 243 257 259 282 268 257 257 314 275 252 217 247 354 269 264 244 245 228 235 180 141 166 173 185 195 198 204 209 211 212 220 216 215 214 219 204 194 208 203 196 194 195 189 184 187 183 185 183 177 181 180 176 176 174 176 180 178 178 182 177 171 171 168 164 163 157 153 153 154 157 160 149 149 149 141 135 131 122 120 100 75 88 91 71 68 62 60 52 44 37 27 22
212 236 271 282 271 282 278 297 273 265 269 187 268 256 264 251 283 272 262 274 261 224 218 220 192 160 181 193 193 194 201 205 211 207 211 212 209 205 215 207 200 204 209 197 193 201 191 186 189 190 185 183 180 176 182 180 181 181 184 183 182 177 183 178 173 176 176 166 169 169 165 158 161 160 158 156 150 152 146 135 125 124 111 113 92 83 83 86 90 70 68 64 60 49 42 22 24
185 234 235 259 273 300 279 233 271 248 256 168 237 272 272 291 145 276 275 247 215 202 218 223 206 217 207 204 204 204 202 211 207 211 213 214 214 211 214 206 206 214 193 202 201 199 190 186 195 192 187 183 176 182 182 185 181 187 186 182 180 183 176 171 178 178 176 177 172 167 163 159 158 157 156 156 149 147 141 133 127 124 103 100 101 94 81 95 86 83 79 68 56 48 39 25 23
273 247 308 288 292 274 260 260 267 301 285 205 207 255 284 300 142 243 265 118 89 184 241 246 224 227 226 216 210 210 212 219 213 195 209 202 212 210 208 204 211 206 196 206 201 188 185 196 192 191 188 182 180 185 184 185 188 187 184 180 184 179 171 175 177 178 182 181 170 168 163 161 158 160 157 154 151 147 141 134 138 120 122 117 106 110 89 78 88 87 76 72 67 62 43 30 18
272 17 318 294 332 316 278 258 269 138 261 146 156 277 283 197 218 244 247 263 293 277 265 255 241 239 234 227 220 214 218 219 200 206 217 212 212 205 211 208 204 201 210 203 190 183 194 192 190 192 186 184 185 187 187 188 185 185 181 186 182 172 176 173 179 183 182 179 171 168 163 160 161 160 161 156 152 146 141 135 130 131 135 123 110 109 92 79 73 72 58 63 60 55 45 24 21
354 21 217 307 317 308 280 135 261 173 253 138 125 276 252 252 239 247 258 266 280 294 270 257 248 244 241 231 226 227 229 215 211 216 219 216 214 209 215 211 203 202 200 189 178 195 195 188 190 185 188 188 189 187 186 185 186 186 183 183 178 172 177 176 182 180 178 176 172 167 161 162 159 161 156 155 151 144 139 136 135 138 140 123 114 100 91 94 91 79 74 67 55 52 40 22 16
270 248 80 248 325 266 271 95 111 212 209 166 144 218 266 265 265 256 255 249 227 249 266 265 253 246 246 239 232 233 233 212 217 220 222 219 216 214 217 210 202 201 187 187 192 197 183 186 183 187 189 190 186 189 188 188 185 183 181 180 179 178 175 179 178 175 177 177 169 167 165 163 162 163 164 155 155 146 140 139 139 148 143 131 112 119 114 96 96 87 83 76 58 50 44 32 23
294 1 257 321 206 271 289 290 174 234 291 195 119 253 244 257 262 273 215 208 177 230 252 261 266 254 244 244 239 240 240 223 231 233 228 223 214 214 208 210 199 194 196 197 197 180 187 187 185 187 185 188 190 189 188 186 184 182 181 179 175 179 174 178 177 179 177 170 171 168 168 164 166 166 164 161 150 150 145 146 151 147 144 127 125 121 106 102 95 88 76 93 71 40 33 10 15
330 198 262 261 189 259 340 291 191 209 173 274 178 232 271 281 259 268 270 229 212 226 252 260 263 265 258 244 240 240 252 250 238 233 230 220 215 212 208 208 197 198 198 191 187 185 189 186 186 186 186 189 188 187 183 183 178 179 181 181 178 177 179 178 176 171 171 174 173 170 170 167 168 168 167 164 150 149 146 143 154 151 143 133 128 114 105 118 107 101 80 76 96 81 47 12 349
262 175 221 221 235 244 248 293 266 200 170 216 237 241 239 253 263 250 294 182 163 215 247 257 261 259 256 256 249 243 241 249 242 238 233 215 212 206 208 205 202 199 197 192 189 185 187 185 186 188 187 186 183 181 180 179 177 170 176 178 177 182 185 176 171 170 177 178 171 174 172 168 169 169 167 162 149 148 146 147 150 148 138 130 126 117 118 105 103 110 95 67 82 80 45 21 347
226 209 237 274 253 223 249 285 275 100 227 222 233 237 249 255 264 266 260 262 218 229 240 248 256 260 262 257 255 251 245 243 246 243 236 210 208 206 206 204 201 195 195 193 189 190 183 182 182 185 180 181 180 175 171 165 157 153 150 166 178 186 183 177 169 179 181 174 180 173 171 172 171 169 165 160 149 149 147 148 147 150 139 136 131 130 121 115 105 88 111 81 53 87 102 12 335
229 217 236 233 241 240 223 244 252 229 252 233 233 241 247 251 260 262 265 259 260 260 253 259 261 261 263 257 254 253 245 246 247 246 242 196 201 198 204 200 197 194 193 188 186 183 183 179 181 181 182 176 169 166 159 159 159 166 171 169 184 200 188 178 184 185 174 182 180 175 177 173 171 168 166 162 154 153 151 154 150 150 148 143 144 143 147 139 135 113 116 106 69 30 28 40 9
247 269 273 256 254 265 262 265 265 165 278 237 242 248 254 258 254 255 252 264 264 260 262 255 250 251 254 260 254 250 247 245 249 250 232 206 197 200 199 190 191 189 190 184 182 186 184 181 176 184 179 172 171 171 173 169 173 175 181 191 197 188 186 180 184 185 184 186 181 181 178 172 170 167 167 163 162 155 153 152 150 157 156 156 156 161 157 152 152 145 133 114 116 75 32 10 3
242 255 266 266 246 271 250 267 272 222 203 256 233 254 254 253 258 260 255 253 260 255 256 255 254 248 249 251 255 253 249 256 264 267 242 213 208 200 190 185 173 179 197 186 188 189 185 180 184 181 173 178 181 178 177 181 185 185 183 192 186 180 179 183 190 191 190 183 183 181 176 175 172 172 169 166 161 160 158 162 165 167 164 164 162 150 149 153 143 130 135 81 40 119 121 42 349
243 234 248 277 262 259 277 262 267 255 171 264 258 260 256 252 252 258 256 240 250 249 247 253 253 254 250 248 248 254 258 257 260 259 249 213 210 200 188 189 193 194 189 190 191 181 182 184 186 176 179 178 183 181 178 187 186 185 184 176 178 175 194 193 186 181 169 181 186 180 176 176 174 174 171 170 166 171 168 164 171 165 166 162 152 154 157 157 157 150 152 138 108 51 91 46 44
226 243 255 244 256 276 287 194 265 243 189 264 246 266 267 266 260 256 257 254 250 248 249 255 252 252 249 245 243 249 252 254 253 253 254 218 202 200 194 196 199 194 190 192 183 186 185 187 183 179 180 181 181 184 185 183 171 145 118 123 136 141 169 160 156 154 173 166 186 184 185 180 179 175 174 172 173 173 171 172 164 168 173 173 164 159 163 165 156 149 140 135 130 102 93 74 69
206 223 232 257 250 238 236 269 332 290 279 271 288 278 272 241 253 251 251 247 255 258 255 257 260 249 249 257 260 249 250 251 252 256 255 215 199 203 200 201 185 193 193 190 187 186 186 187 183 178 178 183 183 180 177 158 136 122 109 94 100 89 79 140 156 194 191 186 176 192 192 178 178 177 177 179 175 176 175 172 172 172 171 174 164 160 165 168 165 159 151 140 144 141 139 135 277
244 212 212 235 243 264 266 281 318 313 301 277 254 313 276 194 217 232 236 254 242 246 243 249 251 251 252 252 250 252 249 248 250 253 253 225 211 206 209 195 193 199 198 197 190 187 180 180 177 178 179 182 182 178 171 161 165 161 154 153 165 182 187 180 196 197 185 192 197 174 170 183 180 177 180 180 180 174 178 178 174 170 174 173 170 164 153 144 158 155 167 154 150 154 139 139 156
267 258 210 236 245 243 259 276 339 279 254 318 72 207 291 145 227 218 235 241 244 258 240 246 250 250 248 246 250 251 251 252 244 252 257 224 212 196 202 198 200 198 206 184 180 185 181 177 179 179 180 181 178 174 169 167 169 176 180 184 185 187 193 208 202 184 190 189 164 179 183 179 184 180 184 182 182 180 177 177 177 178 174 170 162 150 158 166 165 166 160 149 165 153 131 145 168
262 225 180 215 234 229 237 226 209 257 292 273 140 136 263 296 263 194 209 220 228 248 253 247 245 246 243 245 248 252 252 246 237 239 246 234 209 197 201 205 196 206 186 169 181 178 180 178 177 180 179 178 176 172 176 177 178 183 188 192 192 197 201 200 184 188 175 172 179 182 178 185 185 186 181 186 182 181 179 178 177 174 172 172 164 167 164 162 154 156 159 162 153 160 165 153 166
221 249 145 187 198 213 157 185 217 235 7 296 172 99 290 258 266 184 174 215 238 236 240 246 243 242 243 249 251 249 249 248 226 239 241 224 211 209 206 196 207 182 168 181 182 179 175 175 176 176 180 177 177 177 179 186 187 186 189 189 198 209 202 190 172 168 174 176 182 180 184 184 185 188 187 181 185 183 180 180 177 175 173 173 168 159 160 162 165 160 157 151 165 174 171 163 138
266 124 91 84 73 70 99 98 30 325 6 268 172 164 226 280 278 177 325 205 222 227 230 238 242 243 242 248 253 256 261 255 221 228 234 222 216 213 203 194 174 191 183 173 167 166 171 169 176 178 184 181 179 182 185 188 189 185 191 197 201 198 187 169 166 177 179 178 187 185 186 183 187 186 186 186 182 184 182 177 179 180 177 171 169 167 161 164 166 165 164 163 163 168 176 158 164
113 71 71 3 35 29 26 70 90 11 260 262 168 194 169 271 299 164 137 199 210 220 247 259 267 268 259 254 258 269 267 254 239 225 228 224 212 195 177 188 190 169 168 163 165 169 171 174 178 183 187 181 181 185 185 190 191 192 198 198 200 196 187 173 171 186 181 181 192 189 187 190 184 188 182 188 186 182 182 178 180 181 175 174 168 168 175 172 171 167 166 163 168 167 174 167 161
140 173 123 28 330 11 33 342 44 184 271 202 189 180 181 232 284 297 219 287 287 201 213 234 237 246 253 255 252 255 258 252 225 212 230 193 157 177 177 192 174 173 158 170 174 174 178 180 180 185 187 188 185 186 188 193 192 198 202 199 201 199 184 187 191 191 189 191 191 188 186 178 189 185 185 184 189 184 179 183 179 174 180 176 179 175 171 171 167 163 165 169 174 172 166 166 166
113 87 79 180 264 25 319 22 297 193 236 223 203 170 337 239 245 243 287 272 262 221 216 223 232 245 250 257 254 253 259 279 216 220 196 193 192 184 193 190 165 175 185 181 180 180 180 183 184 186 195 190 190 187 192 194 195 201 201 201 203 195 194 195 196 195 190 192 190 187 181 191 181 185 193 189 193 183 181 179 180 183 183 186 174 171 173 168 166 167 169 172 173 176 177 171 169
131 169 164 131 254 240 257 262 247 300 282 240 166 168 239 277 310 205 249 252 234 214 219 224 228 231 237 245 251 255 270 266 226 191 197 207 205 199 195 188 187 185 185 183 180 182 184 187 190 194 197 189 190 191 196 195 202 204 201 201 200 194 200 199 200 199 192 192 188 191 190 191 189 195 187 195 187 180 185 188 182 182 180 173 172 173 170 171 168 171 173 175 181 180 165 167 165
199 115 157 197 175 153 212 218 244 243 253 329 276 124 234 24 245 217 210 235 268 232 227 230 226 231 244 258 278 282 279 270 160 187 208 213 212 199 192 192 190 189 184 181 182 187 182 190 193 200 193 195 193 196 194 201 206 204 202 202 199 198 202 200 204 200 191 192 193 192 195 193 195 197 194 191 172 183 185 178 180 178 176 175 171 170 170 170 171 168 173 174 173 167 165 159 163
212 160 69 57 228 144 223 226 248 275 338 311 200 220 207 242 196 268 266 294 277 242 234 248 262 254 256 273 265 257 255 260 174 212 227 225 214 205 197 192 193 185 183 184 188 186 190 198 198 201 201 196 195 194 200 204 206 200 200 201 203 201 201 202 204 201 200 194 191 192 194 194 196 189 189 178 185 180 180 180 176 180 174 173 174 172 170 171 170 168 170 170 174 175 162 165 166
215 110 192 218 90 165 254 316 282 98 353 259 167 280 267 315 274 234 238 238 246 253 302 264 252 260 254 243 251 254 257 260 209 223 227 231 222 217 206 197 186 183 185 192 193 191 196 196 195 202 206 199 199 202 204 203 201 198 204 204 200 200 202 202 204 201 197 190 188 194 192 195 184 184 185 182 178 183 181 177 176 175 177 176 173 174 171 169 168 168 171 171 175 174 160 169 160
107 188 230 67 133 112 162 216 327 235 238 268 229 247 277 339 283 12 69 176 266 263 248 240 234 233 241 251 252 256 262 279 277 254 240 215 200 211 220 211 197 193 195 196 200 199 199 195 196 200 202 206 210 206 202 198 198 202 203 204 204 204 204 206 202 198 191 183 191 191 187 183 194 184 174 178 178 179 179 178 177 177 176 175 176 172 170 166 163 169 171 174 173 163 161 155 160
151 193 231 144 232 238 231 92 229 244 247 262 260 275 262 241 259 271 293 303 292 279 247 243 261 262 252 253 258 259 260 281 271 256 256 254 228 209 202 205 201 200 205 207 203 196 201 206 204 198 202 209 211 212 214 209 202 206 206 205 205 204 205 204 201 193 182 190 192 191 189 191 174 176 176 173 175 179 181 181 177 175 175 176 172 172 166 166 168 165 169 170 169 163 160 163 164
16 49 334 2 79 210 156 199 184 195 247 249 264 266 269 251 235 252 226 244 242 251 290 241 238 249 254 256 251 252 260 262 262 253 249 251 261 249 227 214 198 197 199 202 194 190 206 208 202 211 215 208 205 209 205 207 207 207 208 209 209 207 205 200 195 187 188 194 195 187 185 179 187 174 179 175 177 181 180 179 179 174 175 173 173 171 170 168 167 169 167 169 175 166 166 170 170
227 230 285 299 222 226 121 311 172 212 243 232 257 260 267 269 218 208 239 235 244 223 240 229 234 233 239 254 284 294 289 272 261 254 254 244 234 235 230 228 235 216 179 176 191 203 209 193 204 207 208 204 207 213 207 213 207 209 206 206 208 205 203 198 192 190 192 194 190 187 187 185 161 184 177 178 179 180 180 180 176 176 176 176 174 173 174 169 170 170 173 171 167 169 167 170 161
198 190 212 208 207 231 243 251 193 246 234 245 243 250 256 270 133 189 230 238 255 277 249 307 306 302 301 285 283 282 289 270 256 257 251 247 245 253 285 297 270 239 208 192 201 193 197 205 212 206 206 212 212 212 208 213 207 209 205 208 207 203 199 195 196 193 195 192 190 187 183 168 183 184 178 179 179 177 177 177 178 178 177 175 176 175 174 170 170 167 167 166 170 171 172 169 166